Showing default

RAPTOR2, 58959

Orbit data source: Space-Track

RAPTOR2, 58959 is a payload satellite owned by SDA (US) in LEO that was launched on Wed, 14 Feb 2024 UTC via an FALCON 9 launch vehicle from the Air Force Eastern Test Range (AFETR). Payload-class satellites include a variety of spacecraft equipped with specific instruments for various scientific and technological missions. These include communications satellites like Starlink; space stations such as the ISS; scientific satellites like the Hubble; Earth observation satellites from companies like Planet Labs, Umbra, and HawkEye 360; GPS; miniature CubeSats for education and research; and military/defense satellites.

Loading next visibility...
Identifier
58959, 2024-028E
Orbit
LEO
Country
Flag of USUS
Related business
Manufacturer
L3Harris SIS
Mission
Operational Defense Early Warn
Bus & Motor
TPL0-L3H, Unknown motor
Mass
~1,000 kg wet, ~1,000 kg dry
Launch date (UTC)
2024-02-14 (2 years ago)
Launch vehicle
FALCON 9
Launch site
Air Force Eastern Test Range (AFETR)
Object type
Payload
Rocket body
Debris
Shape & HBR
Box + 1 Pan, 1.0 m
Radar Cross Section
0.945 m², Large (>1 m²)

Expand to show TLE details & history
Last TLE update: 1 week ago

TLE from 1 week ago
0 RAPTOR2
1 58959U 24028E   26152.32464298 -.00000060  00000-0  19615-4 0  9999
2 58959  39.9895 115.8382 0011382 170.0888 190.0085 13.70555340114895
Epoch: 2026-06-01T07:47Z
TLE epoch observation values (Epoch: 2026-06-01T07:47:29.153Z)
Latitude
0.00001°
Longitude
109.15314°
Altitude
1,005.325 km
Speed
7.347 km/s
True Right ascension
07h 43m 21s
True Declination
0° 00' 00"
Sunlit
Object was in daylight at epoch
Visualization orbit readout
Latitude
Unknown
Longitude
Unknown
Altitude
Unknown
Speed
Unknown
Apparent Right ascension
Unknown
Apparent Declination
Unknown
Sunlit
N/A
Visualization observer readout
Local Sidereal Time
14:40:15
Azimuth
Unknown
Elevation
Unknown
Doppler factor
Unknown
Orbital elements
Apogee altitude
1,008.253 km
Perigee altitude
991.457 km
Semi-major axis
7,377.992 km
Eccentricity
0.00114
Inclination
39.9895°
RAAN
115.8382°
Arg. of periapsis
170.0888°
True anomaly
189.98586°
Mean anomaly
190.0085°
Eccentric anomaly
189.99718°
Mean motion
3.42481 °/min
Orbital period
105.12 mins
BSTAR
0.000019615
Loading maneuver chart data...
Computing Atmospheric mass density...
Loading historical data...
Loading historical data...
Loading historical data...
Loading historical data...
Loading historical data...
Loading historical data...
Loading historical data...
Other satellites on launch #28 in the year 2024 (2024-02-14 UTC)

Documentation

Showing up to 5 results
|